User: anonymous   Login
Location: Chenango Forks
(42.2242°N, 75.8278°W)
Time: 13:11:22
(UTC-05:00)
Language:

Coronas F rocket - Orbit

View from above orbital plane
View from above orbital plane
View from above satellite
View from above satellite

Ground track
Ground track

The orbit data is extracted from the following two-line orbital elements,

1 26874U 01032B   17019.77790046  .00057978  10680-6  13321-3 0  9991
2 26874  82.4531  42.1591 0006718  96.3632 263.8409 15.97113774870018
Epoch (UTC): 19 January 2017 18:40:10
Eccentricity: 0.0006718
inclination: 82.4531°
perigee height: 278 km
apogee height: 287 km
right ascension of ascending node: 42.1591°
argument of perigee: 96.3632°
revolutions per day: 15.97113774
mean anomaly at epoch: 263.8409°
orbit number at epoch: 87001

The dashed part of the orbit path shows where the satellite is in the earth's shadow,  

DLR